Location: Altenst�hlen
(53.5567°N, 8.9425°E)
Time: 08:08:21
(UTC+00:00)

Cosmos 1153 Rocket - Pass Details

Date: 23 October 2019
Orbit: 953 x 1007 km, 82.9° (Epoch: 16 November)

Event Time Altitude Azimuth Distance (km) Brightness Sun altitude
Rises 17:07:22 0° 350° (N) 3,647 7.5 -9.0°
Reaches altitude 10° 17:09:55 10° 354° (N) 2,695 6.8 -9.4°
Maximum altitude 17:16:00 59° 74° (ENE) 1,093 4.5 -10.3°
Drops below altitude 10° 17:22:03 10° 154° (SSE) 2,684 6.6 -11.2°
Sets 17:24:35 0° 158° (SSE) 3,631 7.3 -11.6°
